Temp
9 9 9 9 9 9 9 9 9 9 9 9 9 9 9 9 9 8 8 9 9 9 9 9 9 10 11 14 17 20 20 19 17 17 19 20 20 20 19 21 21 20 21 23 23 22 22
9 9 9 9 9 9 9 8 8 8 8 8 8 8 8 8 8 8 8 8 9 9 9 10 10 10 12 14 19 19 18 17 17 17 19 20 20 21 20 21 21 22 22 22 22 22 22
9 9 8 8 8 8 8 8 8 8 8 8 8 8 8 8 8 8 8 9 12 11 11 11 10 10 13 14 19 18 17 17 18 18 19 20 21 20 22 20 21 21 20 20 20 21 21
8 8 8 8 8 8 8 8 8 8 8 8 8 7 7 7 7 7 8 11 11 11 12 12 11 11 13 17 17 18 18 17 18 18 19 20 21 19 19 20 20 19 19 17 20 21 21
8 8 8 8 8 8 8 8 8 7 7 8 7 7 7 7 9 9 11 12 13 12 12 12 12 13 15 17 17 17 18 18 18 18 19 19 19 18 19 17 17 18 17 18 19 21 22
8 8 7 7 7 7 7 7 7 7 7 7 7 7 7 7 8 9 11 14 14 12 12 13 15 13 16 18 17 17 17 18 18 18 17 17 16 16 16 17 15 17 18 19 19 22 20
7 7 7 7 7 7 7 7 7 7 7 7 7 7 7 7 8 10 11 14 13 15 13 15 15 16 18 17 16 16 17 18 18 17 15 16 15 15 17 17 18 19 19 19 20 22 19
7 7 7 7 7 7 7 7 7 7 7 7 7 7 7 7 8 10 11 11 9 8 8 11 12 13 15 15 14 17 17 16 16 15 16 16 15 17 19 19 19 19 19 19 20 21 19
7 7 7 7 7 7 7 7 7 7 7 7 7 7 7 8 10 10 11 10 9 9 8 12 14 15 15 15 15 16 17 16 16 16 16 16 18 18 18 18 18 18 18 18 18 19 19
7 7 7 7 7 7 7 7 7 7 7 7 6 7 7 8 11 9 11 9 9 9 9 16 14 15 15 15 15 18 17 17 17 16 17 17 18 19 18 18 18 17 19 19 18 17 15
7 7 7 6 6 6 6 7 6 6 7 7 6 6 8 8 8 9 10 9 9 10 13 18 15 15 16 15 16 15 16 16 15 17 17 16 17 16 17 18 19 17 18 17 16 16 16
7 6 6 6 6 6 6 6 6 6 6 6 6 6 8 7 8 9 8 8 9 12 13 17 16 16 15 15 16 14 14 15 16 14 15 16 18 16 17 18 17 18 16 16 16 15 12
6 6 6 6 6 6 6 6 6 6 6 6 6 7 8 8 8 7 7 9 12 13 19 16 15 16 15 16 17 15 14 13 13 11 12 15 15 16 16 15 16 15 14 12 12 12 13
6 6 6 6 6 6 6 6 6 6 5 5 6 8 7 9 8 7 8 11 12 16 14 14 13 13 14 16 16 17 15 14 14 14 13 13 14 16 16 15 15 14 15 13 15 14 15
6 5 5 6 6 6 5 5 5 5 5 6 6 7 8 8 8 8 9 10 13 12 12 11 11 12 14 14 14 14 14 14 15 16 14 14 15 18 17 16 15 15 14 17 15 16 13
5 5 5 5 6 5 5 5 5 5 5 6 6 7 8 8 8 8 8 10 11 11 11 10 9 10 7 8 10 10 10 13 8 9 11 13 11 14 16 16 15 15 16 14 14 13 13
5 5 5 5 5 5 5 5 5 5 5 6 6 6 7 8 8 8 7 9 9 11 11 9 8 9 9 8 8 8 10 11 7 7 8 10 11 11 13 13 13 14 13 13 14 14 13
5 5 5 5 5 5 5 5 5 5 5 5 6 6 8 7 8 8 7 9 10 9 10 9 9 9 8 8 8 8 8 8 8 7 6 8 7 9 10 11 11 11 12 12 12 12 13
5 5 5 5 5 5 5 5 5 5 4 4 5 5 7 7 7 7 8 8 6 8 9 8 8 8 8 7 6 7 7 9 9 6 6 6 6 6 9 12 11 9 8 9 9 9 10
5 5 5 5 5 5 5 4 4 4 4 5 5 4 7 8 8 6 6 6 6 8 8 9 8 8 7 6 7 5 7 8 8 8 9 7 6 6 6 6 7 7 8 8 8 9 9
5 4 5 5 5 4 4 4 4 4 5 5 4 5 4 5 5 5 6 6 5 6 8 8 6 6 6 5 5 6 7 6 7 8 8 7 6 6 7 7 7 8 7 7 7 6 8
4 4 4 4 4 4 4 4 4 4 5 5 4 3 4 3 5 5 6 4 6 6 6 5 5 6 5 4 5 4 5 4 5 6 6 5 4 6 5 7 8 7 6 3 3 1 3
4 4 4 4 4 4 4 4 4 4 4 5 5 4 3 4 5 4 5 5 5 6 5 6 5 5 5 5 5 5 5 4 4 4 4 4 4 5 5 8 6 4 0 2 -2 -3 -2
4 4 4 4 4 3 3 3 4 4 4 4 5 4 3 3 4 4 5 5 4 5 4 5 5 3 5 5 4 3 3 3 3 3 4 3 4 5 5 3 1 -1 -4 -4 -5 -6 -5
4 4 4 4 4 4 3 3 3 3 3 4 4 3 2 3 4 4 4 4 4 4 4 5 5 5 4 3 2 1 3 2 3 3 3 3 3 5 3 2 0 -3 -7 -7 -7 -7 -7
3 4 3 3 3 2 2 2 2 3 3 3 4 4 3 3 3 4 3 4 2 2 3 4 4 4 3 2 1 0 3 4 4 4 3 3 2 3 1 2 0 -9 -10 -8 -8 -7 -8
3 3 3 3 3 3 2 2 2 2 2 2 3 4 2 2 3 3 3 2 2 1 1 2 0 1 2 2 2 2 3 3 4 1 1 2 -2 1 0 2 -9 -11 -10 -9 -4 -9 -9
3 3 3 3 3 2 2 2 2 1 2 2 3 4 3 2 2 1 -0 0 -0 -0 -0 -1 -0 1 -0 2 3 3 2 3 -2 -6 -6 -8 -8 -8 -6 -4 -5 -12 -10 -11 -11 -10 -10
3 3 2 2 2 2 3 2 2 1 1 2 3 4 3 2 1 -1 -2 -3 -3 -3 -2 -3 -0 -0 0 1 -0 -1 0 -3 -0 -4 -9 -9 -11 -11 -11 -11 -13 -12 -12 -12 -12 -12 -12
Height
833 831 829 827 824 821 818 815 811 808 804 800 796 792 787 781 776 770 765 759 753 749 746 744 743 744 744 739 721 713 711 712 715 719 719 721 724 727 729 721 721 723 714 709 706 708 707
835 833 831 828 825 822 819 815 811 807 803 799 795 790 784 778 772 766 759 752 746 742 739 737 737 739 741 733 711 710 709 711 713 717 718 718 718 717 719 717 718 706 709 706 705 704 704
837 834 831 829 826 823 819 815 811 807 803 799 795 789 783 776 769 762 754 745 740 734 729 726 730 734 732 713 709 708 709 710 712 714 715 716 716 717 712 720 711 709 715 710 706 704 706
837 835 832 829 826 822 819 815 811 806 803 798 793 788 781 774 766 758 747 739 734 729 725 722 722 729 720 706 704 706 708 710 711 713 714 714 715 715 717 712 712 718 714 725 704 699 694
838 835 833 829 826 823 819 815 810 806 802 798 793 786 778 770 761 752 743 732 727 725 723 722 723 723 712 703 703 703 706 708 710 712 713 714 714 718 717 726 730 720 723 717 711 691 690
838 836 833 830 827 823 819 815 811 807 802 797 792 785 777 769 760 750 739 726 724 724 723 724 722 725 706 700 699 700 702 706 709 711 715 715 717 719 718 721 723 718 714 703 702 687 689
839 836 833 830 826 822 818 814 810 806 802 796 790 784 776 768 759 751 739 729 732 725 726 719 713 704 697 699 700 700 700 702 704 710 719 714 719 714 709 706 702 701 700 697 689 680 689
838 836 833 829 826 821 817 813 810 806 801 796 790 783 775 765 758 754 750 747 756 756 737 717 707 704 702 702 704 695 699 704 705 707 707 709 706 698 693 696 695 696 697 693 686 680 690
838 835 832 829 825 821 817 813 809 805 800 795 788 781 774 763 756 755 755 757 755 752 744 706 698 696 695 698 700 694 694 694 697 701 698 697 682 685 690 692 693 688 690 689 690 687 680
837 834 831 827 823 820 816 812 808 803 798 793 788 781 775 765 757 758 755 756 754 752 741 697 698 696 698 699 697 687 688 691 691 692 691 686 675 674 679 681 683 687 680 682 684 696 701
835 833 830 826 822 818 815 811 807 802 797 791 786 781 774 769 766 760 759 754 753 752 735 688 697 698 694 699 694 693 691 691 691 686 685 678 673 676 673 665 669 671 673 682 685 689 692
835 832 829 826 822 818 814 810 805 801 795 790 785 779 773 769 766 762 756 752 752 744 730 691 696 694 697 693 690 693 693 694 691 692 685 676 667 674 671 665 666 667 676 680 685 689 704
834 831 828 825 821 817 813 809 805 800 795 789 782 776 770 768 766 762 757 752 743 733 680 697 703 698 697 692 682 685 692 694 692 703 690 671 666 662 666 674 669 677 685 703 707 704 681
833 831 827 824 821 817 813 808 804 799 794 789 782 772 768 766 765 762 757 749 741 701 711 710 712 707 702 691 684 677 680 685 685 685 680 679 666 653 650 658 662 667 667 680 667 671 662
833 831 827 824 820 817 813 808 804 798 793 787 778 770 767 766 763 760 758 748 725 731 732 730 717 707 697 696 700 689 684 680 676 673 678 667 651 637 637 643 655 654 663 640 654 645 663
833 830 827 824 821 817 813 809 804 799 793 786 780 773 770 769 766 764 761 748 741 740 740 739 740 729 745 736 721 719 714 687 709 702 688 669 670 653 644 643 649 652 649 663 659 663 658
832 830 827 823 820 816 812 809 805 800 793 787 781 776 773 769 766 764 765 754 751 746 744 745 746 740 737 737 738 732 714 707 720 716 707 692 676 669 658 659 663 657 658 655 652 649 653
832 829 825 822 819 816 811 808 804 800 794 787 785 781 772 768 767 764 765 759 754 751 748 746 741 740 742 737 733 733 726 721 720 724 721 703 696 686 678 665 666 669 663 664 660 655 647
830 827 823 820 818 815 811 807 804 800 796 792 790 786 775 774 774 772 769 766 768 756 749 747 746 742 738 739 742 728 726 718 717 723 723 717 707 704 680 656 665 680 683 677 677 672 658
828 825 822 819 817 814 811 808 804 801 797 794 793 790 777 772 773 778 775 768 764 755 750 743 743 737 737 738 733 738 725 714 714 714 712 715 708 708 704 707 703 696 686 684 684 672 663
828 826 823 820 817 814 811 808 805 801 797 796 798 793 795 786 782 781 774 770 765 758 751 747 746 743 740 741 736 728 721 720 712 708 706 706 707 701 694 695 696 693 697 689 690 689 679
829 827 824 822 818 815 812 809 805 800 798 797 800 803 796 793 785 779 773 774 762 758 759 751 753 740 740 743 739 735 729 722 721 709 708 713 718 705 703 690 686 689 700 713 710 727 706
829 827 825 822 820 816 813 810 805 802 800 799 800 800 801 789 784 782 776 771 766 761 753 754 748 744 739 734 731 728 723 717 716 715 713 716 714 703 699 683 689 704 735 725 751 755 744
829 827 824 822 820 817 813 810 806 803 802 802 801 801 799 790 786 781 776 770 767 762 758 750 745 747 736 731 725 720 713 707 707 705 708 710 710 702 694 708 735 756 766 764 771 780 776
828 825 824 822 819 815 812 809 806 804 802 800 799 799 797 790 783 776 775 771 763 758 753 748 742 740 736 734 735 730 712 710 705 706 704 705 707 698 707 714 735 758 790 794 788 791 793
828 825 824 821 818 815 811 807 804 801 799 797 795 796 794 790 780 774 774 770 772 763 754 747 741 739 737 738 738 744 721 709 708 703 707 705 708 708 720 722 736 806 802 795 791 799 808
826 825 822 820 818 814 810 806 802 799 795 794 790 789 788 783 776 776 775 774 773 771 765 753 754 745 739 738 737 731 717 710 705 728 729 717 742 725 730 720 805 818 805 791 771 816 816
827 825 821 819 816 812 808 805 801 796 793 790 786 785 784 779 775 776 778 778 778 776 774 768 760 748 750 738 728 726 727 714 746 778 778 790 794 790 779 767 780 819 803 812 828 822 820
826 823 821 817 814 810 807 803 800 796 793 787 782 779 779 777 777 778 780 783 784 784 782 777 770 765 759 752 755 751 742 753 740 766 799 804 820 818 823 829 836 833 832 832 830 828 826
Wind_Speed
15 16 16 17 18 19 20 21 22 23 24 24 25 26 28 28 29 30 31 32 33 29 27 23 18 13 7 9 12 21 12 10 15 21 20 16 16 14 9 11 13 21 19 13 14 12 13
15 16 17 18 18 19 20 21 22 23 24 25 26 28 29 31 32 32 32 35 33 31 30 25 16 7 6 16 10 5 7 14 15 21 17 15 8 13 8 13 13 8 20 20 13 16 8
15 16 17 18 19 19 20 22 23 24 25 26 28 30 31 33 34 35 37 35 33 32 29 23 16 11 12 19 5 2 10 15 15 20 10 19 20 7 6 15 10 12 9 10 13 9 9
15 16 17 18 19 21 22 23 24 25 25 27 29 31 32 34 36 39 38 37 31 22 13 8 7 14 8 5 13 21 13 12 15 14 15 16 13 8 8 10 7 5 8 12 9 18 16
15 16 17 19 20 21 21 22 23 25 25 27 29 31 34 36 41 43 36 37 24 9 6 3 8 9 6 2 4 13 16 15 12 11 10 7 5 5 7 9 8 9 9 15 16 18 4
15 16 17 19 20 20 21 23 23 24 25 27 29 31 33 36 45 32 35 30 9 3 0 5 6 4 6 2 3 4 15 16 7 6 4 5 5 7 9 9 13 10 16 16 13 7 9
15 16 17 18 19 20 22 23 23 24 25 28 30 34 37 41 44 23 34 8 6 2 7 8 11 12 4 3 3 7 13 12 9 8 8 11 8 13 17 19 17 17 19 20 15 9 9
15 17 18 20 20 22 22 23 23 24 26 28 32 38 40 44 32 17 17 5 5 7 13 16 22 20 22 11 4 8 16 10 10 13 14 8 18 16 17 18 19 20 22 21 15 15 8
17 18 19 20 21 22 22 24 25 25 27 29 31 38 40 42 17 13 12 10 10 9 7 11 5 6 3 12 10 10 12 8 11 13 17 16 9 22 19 17 18 20 18 15 15 14 13
17 19 20 20 21 23 24 25 25 25 27 30 30 36 37 35 5 24 4 16 14 6 5 4 3 2 4 4 6 12 17 6 8 13 14 15 21 23 17 18 13 20 11 14 14 10 12
17 18 19 21 22 22 24 25 25 27 30 30 30 33 37 20 18 9 15 20 16 4 8 4 5 3 3 5 4 3 5 4 14 10 5 9 8 7 19 27 21 19 8 9 8 11 4
17 19 20 21 23 23 25 26 26 26 29 31 32 34 32 19 17 11 21 20 9 2 8 3 4 0 4 8 4 4 4 3 4 10 16 17 7 3 9 6 9 0 6 3 6 3 8
18 19 20 21 22 23 24 25 26 26 27 31 34 33 21 19 10 22 20 8 3 5 2 4 4 7 11 6 7 9 7 8 8 4 9 9 23 21 9 6 3 4 6 3 4 5 10
18 18 20 21 22 23 23 25 26 26 27 28 33 28 21 10 10 14 11 3 6 5 7 13 15 20 13 9 9 11 8 13 14 14 14 8 12 17 15 21 10 14 17 6 9 7 8
18 19 19 20 21 22 23 25 25 26 29 31 24 19 14 6 12 13 5 4 4 8 11 15 21 14 11 19 18 11 10 13 11 17 17 9 16 8 4 9 15 8 18 23 12 16 4
17 18 19 19 21 22 23 24 25 26 28 26 19 14 7 12 12 13 3 6 10 17 16 14 12 11 14 16 19 18 12 16 17 24 22 7 12 17 7 1 8 10 4 8 9 9 15
18 18 19 20 21 22 23 23 24 25 27 20 11 5 5 16 16 2 2 4 13 15 16 11 19 21 19 18 14 15 9 17 18 18 20 15 7 8 8 4 10 6 6 5 6 10 3
17 19 19 20 21 22 22 22 22 22 24 18 4 4 18 11 3 3 4 13 16 16 14 17 12 10 13 18 17 12 17 9 15 11 14 8 4 5 12 16 8 8 5 8 8 10 6
17 18 18 19 20 21 20 21 20 19 19 12 5 3 6 6 4 7 12 15 7 17 15 16 12 15 14 18 12 7 10 5 5 4 6 5 3 5 10 7 1 4 6 9 9 4 11
17 17 17 18 18 19 19 20 17 16 17 10 3 4 1 1 3 11 12 12 18 12 13 15 17 14 12 11 13 8 16 10 12 12 19 8 3 5 3 8 7 9 17 14 6 5 1
16 17 17 18 18 18 18 18 16 16 16 7 2 3 4 4 7 12 12 11 16 16 13 10 7 11 17 7 12 12 13 15 14 17 6 0 8 6 8 8 9 9 11 5 4 8 7
16 16 17 17 17 17 16 16 16 16 14 1 3 3 1 8 9 11 11 7 15 17 13 13 13 21 11 6 11 18 13 12 11 9 7 3 7 13 5 12 11 7 7 12 9 12 10
14 15 16 17 17 16 16 15 15 13 10 4 3 1 2 6 6 6 6 18 18 17 7 18 16 16 13 13 12 15 16 19 17 15 17 6 3 3 5 3 4 1 15 10 13 17 6
14 15 15 15 15 15 15 15 14 13 10 5 5 3 2 5 5 9 18 15 18 19 18 14 12 7 6 11 14 9 14 18 15 16 11 10 6 6 2 1 2 5 14 17 20 17 16
14 15 15 16 16 15 15 15 15 14 11 10 9 3 2 4 6 12 14 14 15 13 6 11 7 4 7 6 5 7 6 3 2 6 5 9 3 3 1 1 6 5 10 8 8 11 17
15 16 16 16 15 18 17 17 18 17 14 13 11 10 3 3 5 9 9 7 6 9 8 6 5 7 3 2 2 3 3 3 4 1 4 4 5 2 4 2 2 3 17 12 6 3 13
16 17 18 16 15 18 18 18 18 19 18 14 12 12 7 3 3 2 3 4 4 5 5 7 9 6 1 2 2 3 3 1 1 4 6 3 5 2 4 2 4 12 16 9 1 4 10
17 19 19 13 14 16 18 18 20 21 21 16 14 14 9 3 3 2 2 2 3 2 3 6 7 4 3 3 3 4 3 5 4 4 4 5 5 4 4 4 2 20 6 6 5 9 10
16 16 15 15 16 18 19 19 19 22 24 20 10 8 7 3 1 3 9 7 5 5 3 3 4 6 4 3 4 4 3 6 7 3 7 4 3 2 5 3 3 7 10 9 9 7 10
Wind_Direction
23 18 15 11 8 7 4 1 358 356 353 350 346 342 338 334 331 328 324 319 318 314 310 303 297 296 303 229 245 279 273 188 181 184 214 203 215 197 217 216 233 222 244 255 249 249 256
17 14 12 8 6 3 0 359 356 354 352 350 347 344 339 335 332 328 322 318 315 312 306 296 286 269 240 250 264 242 209 176 180 193 215 215 218 221 264 250 246 254 236 245 255 266 257
15 13 11 9 7 4 1 358 356 355 352 350 347 344 340 335 333 329 323 320 319 316 308 290 257 218 238 239 241 149 190 189 191 200 221 227 243 260 245 263 298 291 279 291 253 256 257
16 13 10 7 5 2 1 360 359 354 351 351 349 346 342 337 333 330 327 323 324 317 318 310 210 186 245 255 249 260 213 212 214 219 236 255 258 281 270 293 283 288 259 254 246 236 234
14 11 8 4 2 1 360 359 357 357 353 350 347 345 342 339 340 338 334 330 330 312 332 148 140 201 256 255 210 218 214 214 201 221 216 237 251 230 240 230 273 229 254 236 251 254 254
13 9 6 3 360 359 359 357 356 356 353 349 346 343 342 339 343 340 345 341 333 288 125 226 268 213 235 221 112 213 201 213 179 187 189 215 207 216 208 203 221 218 238 240 244 242 179
8 3 0 357 356 353 353 352 352 349 348 346 344 343 342 340 343 346 351 352 1 211 7 278 292 263 309 76 193 217 192 191 193 181 203 195 207 216 218 223 242 264 280 281 278 286 179
360 358 354 352 349 349 346 344 344 345 345 344 343 343 342 341 344 349 1 44 47 290 297 275 264 260 260 288 284 204 173 188 196 205 213 223 225 221 224 229 238 244 252 259 273 276 204
357 355 353 351 350 349 349 345 345 344 342 342 343 344 344 344 345 358 360 32 340 332 276 292 233 273 237 207 226 214 187 199 193 213 220 227 220 216 235 248 254 252 253 262 259 290 282
355 353 350 349 349 348 347 346 345 343 343 345 342 342 345 348 21 337 72 352 342 340 295 210 212 188 128 265 234 232 207 225 219 240 237 253 245 244 229 225 225 253 247 263 259 256 257
354 350 348 349 348 348 347 347 346 346 345 342 342 338 341 354 301 315 325 330 327 258 325 96 112 91 127 232 351 194 320 254 244 235 220 234 211 221 234 240 234 249 227 247 272 254 282
350 349 346 350 349 348 349 348 348 347 347 343 340 337 339 339 321 338 328 319 298 253 250 107 115 169 227 204 234 124 213 310 317 264 264 252 268 274 229 254 234 133 180 211 259 213 245
349 350 349 349 347 348 349 347 346 346 344 341 338 336 334 321 317 322 326 298 257 210 277 56 352 347 322 270 236 186 199 195 209 204 215 237 239 241 200 256 212 214 163 193 228 202 236
351 346 349 349 348 347 346 347 345 346 344 342 338 334 324 331 325 332 321 257 230 310 4 7 348 311 277 294 274 268 217 237 224 255 281 272 270 207 206 206 189 207 189 193 215 194 235
349 348 348 349 347 346 346 347 346 345 344 342 344 321 326 348 340 340 303 247 324 24 354 339 333 331 336 340 344 332 294 283 280 269 261 267 260 229 143 187 203 227 211 228 274 282 293
348 349 348 346 346 347 349 349 351 350 346 347 333 321 32 348 340 320 298 280 329 357 352 343 322 328 335 325 327 334 330 329 10 343 346 315 308 273 311 199 242 240 315 232 226 238 245
347 345 343 343 341 342 344 347 348 350 348 353 332 333 17 333 322 279 303 326 329 335 336 336 309 304 313 324 340 324 308 317 26 341 318 315 271 296 303 171 263 245 248 242 271 231 256
347 345 345 346 344 343 345 344 343 349 350 356 342 349 340 358 330 54 330 324 326 329 318 304 319 311 310 311 309 307 294 305 355 341 331 345 304 305 298 302 348 341 337 304 258 256 242
350 352 352 349 346 347 348 349 348 351 354 333 349 302 315 338 12 346 330 329 324 320 314 315 310 303 300 303 303 307 306 294 3 345 337 325 339 331 312 248 167 263 311 258 273 262 215
354 356 358 357 357 355 353 353 351 353 355 360 356 341 297 288 334 349 329 313 321 316 314 326 308 302 297 299 295 286 300 298 336 309 301 280 264 239 295 284 276 306 323 319 315 274 270
2 1 1 360 0 358 355 355 356 356 1 2 20 17 28 318 330 314 308 314 314 323 335 325 308 320 305 296 303 293 311 311 308 297 313 39 267 247 258 257 263 271 277 313 322 339 306
4 4 2 2 0 357 356 354 357 358 2 16 334 347 291 289 285 310 318 314 327 326 336 312 329 319 314 296 297 299 317 305 276 297 286 339 276 287 261 253 257 276 12 353 40 347 38
3 3 2 1 358 354 354 357 2 3 18 351 13 248 267 282 304 314 316 327 315 328 297 325 310 314 316 308 313 291 279 269 256 267 280 250 248 288 265 301 38 359 356 352 81 26 357
6 4 2 356 351 351 353 355 357 0 359 329 312 294 263 283 311 302 315 323 319 316 302 304 305 299 295 330 301 279 255 256 256 261 250 255 258 273 239 36 121 92 39 71 76 39 28
2 0 355 351 350 353 353 353 353 348 339 322 297 233 231 273 300 301 330 320 316 312 319 303 333 295 323 312 306 324 306 339 29 23 338 227 230 260 211 131 122 48 25 354 1 43 20
358 354 344 345 345 351 351 355 354 342 328 312 275 260 244 267 222 344 314 328 329 321 311 278 338 315 319 273 278 275 295 301 335 319 11 29 23 5 5 46 249 8 330 328 291 87 10
357 350 344 341 341 350 351 353 354 352 342 318 281 251 232 246 260 51 298 318 311 296 286 320 331 332 9 280 270 257 275 233 356 41 342 6 352 341 336 69 87 335 316 295 187 7 5
358 355 354 350 341 351 352 349 347 347 344 327 280 276 236 238 286 44 51 348 324 17 313 332 323 23 318 309 301 351 328 353 80 36 3 46 333 21 317 39 300 349 24 60 341 21 12
349 350 353 350 349 345 342 341 342 346 343 337 282 281 260 238 7 99 97 80 47 359 303 319 286 300 342 334 4 317 322 357 15 73 23 42 1 19 26 79 55 24 44 36 20 16 8